This is the latest recevied weather packets stored in our database for station/object KO6HRZ. If no packets are shown the sender has not sent any weather packets the latest 10 day(s).
| Time | Temp. | Humidity | Pressure | Rain* | Wind** | Luminosity | Snow |
|---|---|---|---|---|---|---|---|
| 1777082240 | 20.56° C | 59% | 1010.8 hPa | 0 mm | - | 41 W/m² | - |
| 1777081636 | 20.56° C | 55% | 1010.8 hPa | 0 mm | - | 58 W/m² | - |
| 1777081035 | 21.67° C | 52% | 1010.8 hPa | 0 mm | - | 46 W/m² | - |
| 1777080430 | 21.67° C | 48% | 1010.8 hPa | 0 mm | - | 49 W/m² | - |
| 1777079829 | 21.67° C | 51% | 1011.1 hPa | 0 mm | - | 54 W/m² | - |
| 1777079227 | 21.67° C | 49% | 1011 hPa | 0 mm | - | 55 W/m² | - |
| 1777078625 | 22.78° C | 49% | 1010.8 hPa | 0 mm | - | 60 W/m² | - |
| 1777078022 | 23.33° C | 50% | 1010.8 hPa | 0 mm | - | 77 W/m² | - |
| 1777077420 | 23.89° C | 50% | 1010.8 hPa | 0 mm | - | 90 W/m² | - |
| 1777076821 | 23.89° C | 50% | 1011 hPa | 0 mm | - | 340 W/m² | - |
| 1777076218 | 23.33° C | 49% | 1010.9 hPa | 0 mm | - | 387 W/m² | - |
| 1777075616 | 23.89° C | 52% | 1011 hPa | 0 mm | - | 424 W/m² | - |
| 1777075015 | 23.89° C | 48% | 1011 hPa | 0 mm | - | 465 W/m² | - |
| 1777074410 | 23.33° C | 51% | 1011.2 hPa | 0 mm | - | 501 W/m² | - |
| 1777073810 | 24.44° C | 51% | 1011.1 hPa | 0 mm | - | 542 W/m² | - |
| 1777073206 | 24.44° C | 51% | 1011.2 hPa | 0 mm | - | 611 W/m² | - |
| 1777072603 | 24.44° C | 49% | 1011.3 hPa | 0 mm | - | 588 W/m² | - |
| 1777072004 | 23.33° C | 54% | 1011.4 hPa | 0 mm | - | 626 W/m² | - |
| 1777071402 | 23.89° C | 52% | 1011.5 hPa | 0 mm | - | 588 W/m² | - |
| 1777070800 | 25° C | 50% | 1011.6 hPa | 0 mm | - | 657 W/m² | - |
| 1777070196 | 24.44° C | 51% | 1011.8 hPa | 0 mm | - | 735 W/m² | - |
| 1777069590 | 24.44° C | 52% | 1011.7 hPa | 0 mm | - | 725 W/m² | - |
| 1777068989 | 24.44° C | 51% | 1012.1 hPa | 0 mm | - | 416 W/m² | - |
| 1777068385 | 23.89° C | 49% | 1012.4 hPa | 0 mm | - | 631 W/m² | - |
| 1777067786 | 24.44° C | 50% | 1012.3 hPa | 0 mm | - | 830 W/m² | - |
* Rain latest hour (hover to see other rain measurements)
** Current wind speed in m/s (hover to see current wind gust speed)